#timestamp,LO_Frequency,Hit,StdDev 
1566486015.3,286046999.8,N
1566486035.2,286047002.5,N
1566486055.0,286047002.3,N
1566486055.9,286047002.3,N
1566486075.7,286047002.8,N
1566486095.6,286047002.6,N
1566486115.4,286047002.5,N
1566486135.3,286047002.4,N
1566486155.1,286047003.8,N
1566486156.0,286047003.8,N
1566486175.8,286047002.8,N
1566486195.7,286047002.7,N
1566486215.5,286047003.7,N
1566486235.3,286047002.9,N
1566486255.2,286047005.6,Y
1566486275.0,286047002.2,P
1566486275.9,286047002.2,P
1566486295.8,286047002.5,P
1566486315.6,286047000.1,N
1566486335.4,286047001.6,N
1566486355.3,286047001.7,N
1566486375.1,286047001.6,N
1566486395.9,286047002.8,Y
1566486415.7,286046999.3,P
1566486435.5,286047001.1,N
1566486455.4,286047000.3,N
1566486475.2,286046998.4,N
1566486495.0,286046996.9,N
1566486495.9,286046996.9,N
1566486515.8,286046997.0,N
1566486535.6,286046997.1,N
1566486555.5,286047000.9,N
1566486575.3,286046999.9,N
1566486595.1,286047002.8,N
1566486615.9,286047000.2,N
1566486635.7,286047001.2,N
1566486655.5,286047000.1,N
1566486675.4,286046998.4,N
1566486695.2,286046998.9,N
1566486715.0,286046998.2,N
1566486716.0,286046998.2,N
1566486735.8,286046998.2,N
1566486755.6,286046999.6,N
1566486775.5,286046999.6,N
1566486795.3,286046999.3,N
1566486815.1,286046998.5,N
1566486835.9,286046998.8,N
1566486855.7,286046996.9,N
1566486875.6,286046998.4,N
1566486895.4,286046999.9,N
1566486915.2,286047002.3,N
1566486935.1,286047002.8,N
1566486936.0,286047002.8,N
1566486955.8,286047001.4,N
1566486975.7,286047000.2,N
1566486995.5,286046998.2,N
1566487015.3,286046998.6,N
1566487035.2,286047001.0,N
1566487055.0,286047002.8,N
1566487055.9,286047002.8,N
1566487075.7,286047000.0,N
1566487095.6,286046999.9,N
1566487115.4,286047002.1,N
1566487135.3,286046999.8,N
1566487155.1,286047002.4,N
1566487175.8,286047002.4,N
1566487195.7,286047002.3,N
1566487215.5,286047000.2,N
1566487235.4,286047000.9,N
1566487255.2,286047002.4,N
1566487275.0,286047003.2,N
1566487275.9,286047003.2,N
1566487295.8,286047003.5,N
1566487315.6,286047001.6,N
1566487335.4,286047002.6,N
1566487355.3,286046999.9,N
1566487375.1,286047001.7,N
1566487395.9,286047005.5,Y
1566487415.7,286047003.6,P
1566487435.5,286047003.5,N
1566487455.4,286047004.4,P
1566487475.2,286046999.8,N
1566487495.1,286046999.7,N
1566487496.0,286046999.7,N
1566487515.8,286047002.4,N
1566487535.6,286047001.1,N
1566487555.5,286047000.4,N
1566487575.3,286047001.2,N
1566487595.1,286046998.3,N
1566487615.9,286047000.1,N
1566487635.7,286046999.9,N
1566487655.6,286046999.8,N
1566487675.4,286047002.4,N
1566487695.2,286046999.9,N
1566487715.1,286046998.6,N
1566487716.0,286046998.6,N
1566487735.8,286047002.7,N
1566487755.6,286047004.1,N
1566487775.5,286047004.2,N
1566487795.3,286047003.8,N
1566487815.2,286047003.2,N
1566487835.9,286047002.1,N
1566487855.7,286047002.7,N
1566487875.6,286047001.8,N
1566487895.4,286047004.1,N
1566487915.2,286047003.9,N
1566487935.1,286047001.4,N
1566487936.0,286047001.4,N
1566487955.8,286047003.1,N
1566487975.7,286047005.8,Y
1566487995.5,286047007.5,P
1566488015.3,286047006.9,N
1566488035.2,286047007.1,N
1566488055.0,286047005.8,N
1566488055.9,286047005.8,N
1566488075.7,286047005.0,N
1566488095.6,286047007.5,Y
1566488115.4,286047002.4,P
1566488135.3,286047000.9,N
1566488155.1,286046996.9,N
1566488156.0,286046996.9,N
1566488175.8,286046999.2,N
1566488195.7,286046999.6,N
1566488215.5,286047001.2,N
1566488235.3,286046999.8,N
1566488255.2,286047004.3,N
1566488275.0,286047003.9,N
1566488275.9,286047003.9,N
1566488295.8,286047005.2,N
1566488315.6,286047003.0,N
1566488335.4,286047003.4,N
1566488355.3,286047002.2,N
1566488375.1,286047001.1,N
1566488395.9,286047001.0,N
1566488415.7,286047000.3,N
1566488435.5,286047001.1,N
1566488455.4,286047000.3,N
1566488475.2,286047001.6,N
1566488495.0,286046999.8,N
1566488495.9,286046999.8,N
1566488515.8,286046998.2,N
1566488535.6,286047000.1,N
1566488555.4,286047001.0,N
1566488575.3,286047001.0,N
1566488595.1,286047001.0,N
1566488615.9,286047002.6,N
1566488635.7,286047002.1,N
1566488655.5,286047002.3,N
1566488675.4,286047001.6,N
1566488695.2,286047002.9,N
1566488715.0,286047001.3,N
1566488716.0,286047001.3,N
1566488735.8,286047002.0,N
1566488755.6,286047011.9,Y
1566488775.5,286047002.0,P
1566488795.3,286047002.5,P
1566488815.1,286047002.2,P
1566488835.9,286047003.6,Y
1566488855.7,286046999.3,P
1566488875.6,286046997.8,N
1566488895.4,286046997.7,N
1566488915.2,286046997.1,N
1566488935.1,286046996.2,N
1566488936.0,286046996.2,N
1566488955.8,286046995.4,N
1566488975.6,286046997.7,N
1566488995.5,286046996.5,N
1566489015.3,286046995.4,N
1566489035.2,286046995.4,N
1566489055.9,286046997.6,N
1566489075.7,286046993.4,Y
1566489095.6,286046999.3,P
1566489115.4,286047000.2,N
1566489135.2,286047002.3,N
1566489155.1,286047000.6,N
1566489156.0,286047000.6,N
1566489175.8,286047000.0,N
1566489195.7,286047002.2,N
1566489215.5,286047000.3,N
1566489235.3,286047001.2,N
1566489255.2,286047000.0,N
1566489275.0,286047001.5,N
1566489275.9,286047001.5,N
1566489295.8,286047005.1,Y
1566489315.6,286047003.5,P
1566489335.4,286047006.0,P
1566489355.3,286047003.5,N
1566489375.1,286047005.6,N
1566489395.8,286047006.0,Y
1566489415.7,286046999.5,P
1566489435.5,286046995.8,N
1566489455.4,286046995.1,N
1566489475.2,286046997.1,N
1566489495.0,286046999.4,N
1566489495.9,286046999.4,N
1566489515.8,286046998.9,N
1566489535.6,286046998.3,N
1566489555.4,286046998.7,N
1566489575.3,286046997.6,N
1566489595.1,286046999.4,N
